Madison, WI

6:06 AM CDT on August 30, 2015 (GMT -0500)
Atmospheric, Oceanic and Space Sciences Building | | Change Station
CLOSE
Current Station
Personal Weather Station
Location: Madison, WI
Elevation: 896 ft
Nearby Weather Stations

Elev 896 ft 43.07 °N, 89.41 °W | Updated 1 minute ago

Overcast
Overcast
64.4 °F
Feels Like 64.4 °F
N
0.5
Wind Variable Wind from South

Today
High -- | Low -- °F
--% Chance of Precip.
Yesterday
High -- | Low -- °F
Precip. -- in
6:19 AM 7:36 PM
Full, 99% visible
Pressure 30.05 in
Visibility 2.5 miles
Clouds Overcast 2400 ft
Dew Point 62 °F
Humidity 89%
Rainfall 0.00 in
Snow Depth Not available.
UV 0 out of 12
Pollen 4.60 out of 12
Air Quality Not available.
Flu Activity Not available.
METAR KMSN 301053Z 00000KT 2 1/2SM BR OVC024 17/16 A3005 RMK AO2 SLP175 VIS NE 1 1/2 FIRST AUGMENTED OBS OF THE DAY T01670156
Pressure 30.05 in
Visibility 2.5 miles
Clouds Overcast 2400 ft
Dew Point 62 °F
Humidity 89%
Rainfall 0.00 in
Snow Depth Not available.
UV 0 out of 12
Pollen 4.60 out of 12
Air Quality Not available.
Flu Activity Not available.
METAR KMSN 301053Z 00000KT 2 1/2SM BR OVC024 17/16 A3005 RMK AO2 SLP175 VIS NE 1 1/2 FIRST AUGMENTED OBS OF THE DAY T01670156

10-Day Weather Forecast

×

Almanac

Astronomy

Aug. 30, 2015 Rise Set
Actual Time
Civil Twilight
Nautical Twilight
Astronomical Twilight
Moon
Length of Visible Light
Length of Day
Tomorrow will be .
, % of the Moon is Illuminated

Today's Extremes

State Highs State Lows

Community

WunderPhotos

Upload Photos

1,850,925 photos uploaded!

WunderBlogs® & News

Nearby

Air Quality

  Air Quality AQ Index Pollutant
Not available.

Snow Depth

Station Depth Elevation

Earthquake Activity

City Distance Mag. Time & Date
Minimum magnitude displayed is 2.5.

Coastal Water Temperatures

Place Temperature

Stations

Nearby Weather Stations

Station Location Temp. Windchill Dew Point Humidity Wind Precip. Elev Updated Type